Home   Weather   Harrisburg   Past weeks
Flag for USA

Past Weather in Harrisburg, Pennsylvania, USA — Yesterday and Last 2 Weeks

Now
47 °F

Light rain. Fog.


Feels Like: 45 °F
Forecast: 49 / 35 °F
Wind: 5 mph from North

Location: Capital City Airport

Current Time: Mar 21, 2019 at 8:45:08 pm

Latest Report: Mar 21, 2019 at 6:56 pm


Visibility: 3 mi

Pressure: 29.69 "Hg

Humidity: 93%

Dew Point: 45 °F

Location of HarrisburgLocation

Past Weather in Harrisburg — Graph

°F

Harrisburg Temperature Yesterday

Maximum temperature yesterday: 55 °F (at 3:56 pm)
Minimum temperature yesterday: 28 °F (at 5:56 am)
Average temperature yesterday: 42 °F

High & Low Weather Summary for the Past Weeks

 TemperatureHumidityPressure
High76 °F (Mar 15, 3:56 pm)96% (Mar 10, 4:56 am)30.48 "Hg (Mar 10, 4:56 am)
Low16 °F (Mar 7, 4:56 am)18% (Mar 19, 2:56 pm)29.64 "Hg (Mar 15, 5:56 pm)
Average41 °F57%30.18 "Hg
* Reported Mar 6 5:56 pm — Mar 21 6:56 pm, Harrisburg. Weather by CustomWeather, © 2019

Note: Actual official high and low records may vary slightly from our data, if they occured in-between our weather recording intervals... More about our weather records

Advertising

Harrisburg Weather History for the Previous 24 Hours

Scroll right to see more
 ConditionsComfort  
Time TempWeatherWind HumidityBarometerVisibility
6:56 pm
Thu, Mar 21
47 °FLight rain. Fog.5 mph93%29.69 "Hg3 mi
5:56 pm46 °FLight rain. Fog.3 mph93%29.71 "Hg4 mi
4:56 pm47 °FRain. Fog.7 mph90%29.76 "Hg2 mi
4:22 pm46 °FRain. Fog.8 mph93%29.77 "Hg2 mi
3:56 pm46 °FLight rain. Fog.6 mph89%29.79 "Hg4 mi
2:56 pm45 °FRain. Fog.6 mph90%29.83 "Hg4 mi
1:56 pm44 °FLight rain. Fog.6 mph89%29.90 "Hg6 mi
1:18 pm44 °FLight rain. Fog.5 mph89%29.92 "Hg5 mi
12:56 pm44 °FRain. Fog.8 mph89%29.95 "Hg4 mi
11:56 am43 °FLight rain. Fog.6 mph89%29.97 "Hg5 mi
11:15 am42 °FLight rain. Fog.5 mph92%29.99 "Hg5 mi
10:56 am42 °FLight rain. Fog.6 mph89%30.01 "Hg5 mi
10:35 am41 °FLight rain. Fog.5 mph93%30.01 "Hg3 mi
10:18 am41 °FRain. Fog.5 mph93%30.01 "Hg2 mi
9:56 am41 °FRain. Fog.7 mph93%30.02 "Hg4 mi
9:32 am41 °FRain. Fog.6 mph89%30.02 "Hg2 mi
9:17 am41 °FRain. Fog.8 mph89%30.03 "Hg3 mi
9:05 am40 °FLight rain. Fog.7 mph93%30.04 "Hg2 mi
8:13 am40 °FLight rain. Fog.6 mph93%30.05 "Hg2 mi
7:56 am40 °FRain. Fog.7 mph93%30.06 "Hg1 mi
7:33 am40 °FLight rain. Fog.5 mph89%30.06 "Hg3 mi
7:18 am40 °FLight rain. Fog.6 mph89%30.06 "Hg5 mi
6:56 am40 °FFog.6 mph89%30.07 "Hg5 mi
6:27 am40 °FLight rain. Fog.6 mph86%30.07 "Hg6 mi
5:56 am40 °FLight rain. Fog.6 mph86%30.09 "Hg6 mi
4:56 am42 °FLight rain. Overcast.5 mph73%30.10 "Hg10 mi
3:56 am42 °FOvercast.5 mph65%30.13 "Hg10 mi
3:09 am42 °FMostly cloudy.7 mph68%30.14 "Hg10 mi
2:56 am42 °FOvercast.5 mph68%30.15 "Hg10 mi
1:56 am42 °FPassing clouds.5 mph68%30.17 "Hg10 mi
12:56 am43 °FPassing clouds.10 mph62%30.19 "Hg10 mi
11:56 pm
Wed, Mar 20
44 °FClear.10 mph58%30.19 "Hg10 mi
10:56 pm45 °FPartly cloudy.14 mph53%30.22 "Hg10 mi
9:56 pm45 °FClear.13 mph49%30.23 "Hg10 mi
8:56 pm46 °FClear.8 mph37%30.23 "Hg10 mi
Weather by CustomWeather, © 2019

See weather overview